TimeMST,TemperatureF,Dew PointF,Humidity,Sea Level PressureIn,VisibilityMPH,Wind Direction,Wind SpeedMPH,Gust SpeedMPH,PrecipitationIn,Events,Conditions,WindDirDegrees,DateUTC
12:51 AM,21.0,15.1,78,30.20,10.0,ESE,3.5,-,N/A,,Clear,110,2012-11-28 07:51:00
1:51 AM,19.9,12.9,74,30.19,10.0,ESE,3.5,-,N/A,,Clear,110,2012-11-28 08:51:00
2:51 AM,19.0,12.9,77,30.16,10.0,SE,8.1,-,N/A,,Clear,130,2012-11-28 09:51:00
3:51 AM,19.0,14.0,81,30.14,10.0,ESE,5.8,-,N/A,,Clear,120,2012-11-28 10:51:00
4:51 AM,21.0,15.1,78,30.12,10.0,ESE,5.8,-,N/A,,Clear,110,2012-11-28 11:51:00
5:51 AM,21.0,15.1,78,30.12,10.0,ESE,6.9,-,N/A,,Clear,120,2012-11-28 12:51:00
6:51 AM,19.0,14.0,81,30.12,10.0,SE,5.8,-,N/A,,Clear,130,2012-11-28 13:51:00
7:51 AM,19.9,14.0,78,30.12,10.0,SE,3.5,-,N/A,,Clear,140,2012-11-28 14:51:00
8:51 AM,23.0,17.1,78,30.13,10.0,Calm,Calm,-,N/A,,Clear,0,2012-11-28 15:51:00
9:51 AM,34.0,23.0,64,30.10,10.0,Calm,Calm,-,N/A,,Clear,0,2012-11-28 16:51:00
10:51 AM,39.9,19.9,45,30.08,10.0,West,10.4,-,N/A,,Clear,270,2012-11-28 17:51:00
11:51 AM,41.0,18.0,40,30.07,10.0,West,11.5,-,N/A,,Clear,280,2012-11-28 18:51:00
12:51 PM,42.1,18.0,38,30.06,10.0,WNW,9.2,-,N/A,,Clear,300,2012-11-28 19:51:00
1:51 PM,44.1,19.0,37,30.05,10.0,West,6.9,-,N/A,,Clear,280,2012-11-28 20:51:00
2:51 PM,43.0,19.0,38,30.04,10.0,WNW,4.6,-,N/A,,Clear,300,2012-11-28 21:51:00
3:51 PM,39.0,19.9,46,30.05,10.0,Calm,Calm,-,N/A,,Clear,0,2012-11-28 22:51:00
4:51 PM,27.0,18.0,69,30.06,10.0,Calm,Calm,-,N/A,,Clear,0,2012-11-28 23:51:00
5:51 PM,25.0,17.1,72,30.07,10.0,Calm,Calm,-,N/A,,Clear,0,2012-11-29 00:51:00
6:51 PM,24.1,17.1,75,30.06,10.0,Calm,Calm,-,N/A,,Clear,0,2012-11-29 01:51:00
7:51 PM,23.0,16.0,74,30.06,10.0,East,5.8,-,N/A,,Clear,100,2012-11-29 02:51:00
8:51 PM,24.1,17.1,75,30.05,10.0,SE,3.5,-,N/A,,Clear,140,2012-11-29 03:51:00
9:51 PM,23.0,17.1,78,30.03,10.0,SE,8.1,-,N/A,,Clear,130,2012-11-29 04:51:00
10:51 PM,21.9,16.0,78,30.01,10.0,ESE,9.2,-,N/A,,Clear,120,2012-11-29 05:51:00